Date,TemperatureHighF,TemperatureAvgF,TemperatureLowF,DewpointHighF,DewpointAvgF,DewpointLowF,HumidityHigh,HumidityAvg,HumidityLow,PressureMaxIn,PressureMinIn,WindSpeedMaxMPH,WindSpeedAvgMPH,GustSpeedMaxMPH,PrecipitationSumIn
2013-1-1,76.6,65.1,53.8,66.3,56.3,46.1,75,73,71,30.10,29.93,12,1,26,0.00
2013-1-2,78.0,68.0,60.5,68.0,59.4,52.5,75,74,71,29.95,29.87,8,2,19,0.00
2013-1-3,80.2,67.6,60.9,69.9,59.1,52.9,76,74,71,30.03,29.90,9,2,19,0.03
2013-1-4,65.3,61.0,57.9,56.7,52.8,50.0,75,75,73,30.15,30.01,7,3,12,0.02
2013-1-5,76.6,66.6,58.2,66.7,57.9,50.3,75,74,72,30.17,30.04,8,2,14,0.00
2013-1-6,80.8,69.4,62.6,70.9,60.9,54.6,76,74,72,30.08,29.94,11,2,22,0.00
2013-1-7,68.8,65.2,61.4,59.6,56.8,53.2,75,74,73,30.09,29.98,10,4,17,0.05
2013-1-8,82.8,71.2,61.4,72.4,62.3,53.4,75,74,71,30.09,29.99,9,3,15,0.00
2013-1-9,86.1,75.8,69.3,75.2,66.5,61.0,75,73,70,30.15,30.04,12,4,21,0.00
2013-1-10,83.6,73.9,66.6,72.8,64.7,58.0,75,73,70,30.16,30.07,15,5,24,0.00
2013-1-11,84.4,72.5,63.9,73.3,63.3,55.4,75,73,70,30.15,30.01,13,2,26,0.00
2013-1-12,82.8,72.0,63.9,72.2,63.0,55.6,75,73,71,30.06,29.95,12,2,19,0.00
2013-1-13,82.1,71.5,63.3,71.8,62.5,55.0,75,73,70,30.04,29.94,6,1,15,0.00
2013-1-14,81.1,70.2,61.5,70.2,61.0,53.1,75,73,70,30.07,29.98,7,1,19,0.00
2013-1-15,80.8,69.2,59.7,70.5,60.2,51.3,75,73,71,30.03,29.93,6,1,16,0.00
2013-1-16,81.3,70.8,61.5,70.8,61.7,53.5,76,73,70,29.99,29.88,6,1,15,0.00
2013-1-17,72.6,63.7,57.6,64.2,55.3,48.5,76,74,72,30.03,29.89,15,6,31,0.04
2013-1-18,65.7,55.1,42.6,56.0,46.5,34.2,75,73,71,30.19,30.03,12,6,23,0.00
2013-1-19,74.2,64.7,54.3,64.6,55.9,46.2,74,73,72,30.15,30.00,11,4,22,0.00
2013-1-20,76.1,67.0,60.9,66.4,58.3,52.9,75,74,72,30.05,29.91,6,1,12,0.00
2013-1-21,74.9,65.3,60.6,65.3,56.6,51.9,74,73,72,29.99,29.90,10,2,19,0.01
2013-1-22,67.0,59.9,51.7,56.1,50.4,42.6,73,71,68,30.16,29.95,10,3,16,0.00
2013-1-23,71.4,56.9,45.2,60.3,47.5,37.1,73,71,67,30.24,30.15,6,1,13,0.00
2013-1-24,72.8,58.0,43.8,62.0,49.0,36.0,75,72,69,30.23,30.12,6,1,14,0.00
2013-1-25,75.7,60.7,49.2,64.8,51.8,41.6,75,73,69,30.20,30.07,7,1,14,0.01
2013-1-26,74.5,61.5,49.3,64.1,52.8,41.7,75,73,70,30.17,30.06,6,1,15,0.00
2013-1-27,78.7,65.1,52.3,67.7,56.0,44.6,76,73,69,30.18,30.09,10,2,19,0.02
2013-1-28,82.8,70.0,60.3,71.8,60.8,52.3,75,73,69,30.20,30.08,13,2,21,0.00
2013-1-29,84.4,70.9,59.9,73.3,61.9,51.6,76,73,70,30.12,29.98,11,2,24,0.00
2013-1-30,79.8,72.2,65.3,69.8,63.2,56.8,74,73,71,29.98,29.81,13,4,33,0.00
2013-1-31,73.0,59.3,49.3,63.8,50.2,40.6,75,72,68,30.13,29.81,16,4,27,0.13
2013-2-1,69.4,54.7,42.2,58.0,45.2,33.8,73,70,67,30.24,30.11,10,2,18,0.00
2013-2-2,73.3,57.3,42.9,62.5,48.2,35.2,74,72,68,30.18,30.04,7,1,13,0.00
2013-2-3,70.6,57.9,47.1,60.5,49.2,39.2,74,73,70,30.10,29.98,10,2,20,0.00
2013-2-4,70.6,56.1,42.9,59.5,47.1,34.9,75,72,68,30.03,29.92,8,1,19,0.03
2013-2-5,76.1,61.3,46.8,65.4,52.1,38.6,74,72,70,29.98,29.89,7,1,16,0.00
2013-2-6,80.0,67.3,56.1,69.3,58.1,47.9,74,73,70,30.00,29.91,8,1,15,0.00
2013-2-7,80.6,70.0,61.1,69.7,61.0,52.7,75,73,70,29.95,29.79,15,3,28,0.02
2013-2-8,77.7,69.3,59.6,67.5,60.3,51.1,75,73,70,29.97,29.78,12,4,24,0.00
2013-2-9,77.7,65.3,55.5,66.9,56.2,47.7,75,72,69,30.07,29.95,10,3,17,0.01
2013-2-10,81.1,69.5,61.4,70.4,60.2,53.0,74,72,70,30.13,30.01,16,6,29,0.00
2013-2-11,81.1,69.9,59.4,70.8,60.9,51.1,75,73,71,30.09,29.97,11,2,23,0.00
2013-2-12,80.4,71.1,61.9,70.5,62.4,53.9,76,74,72,29.99,29.84,13,3,28,0.01
2013-2-13,80.8,72.8,62.0,71.1,64.0,53.6,75,74,72,29.88,29.75,20,7,35,0.02
2013-2-14,67.3,63.0,60.8,58.3,54.6,52.5,75,74,73,29.92,29.81,10,2,20,0.23
2013-2-15,70.3,62.3,58.5,60.8,53.9,50.4,76,74,72,29.95,29.84,4,1,10,0.30
2013-2-16,67.8,59.2,52.9,57.7,50.3,44.8,75,72,70,30.00,29.82,15,7,27,0.00
2013-2-17,55.8,49.5,40.2,46.2,39.7,31.2,71,69,68,30.23,30.00,12,4,25,0.00
2013-2-18,70.3,53.5,35.1,59.6,44.3,27.3,74,71,68,30.24,30.09,13,3,23,0.00
2013-2-19,76.4,64.1,49.8,66.2,55.1,41.8,74,73,70,30.10,29.98,14,3,26,0.00
2013-2-20,78.9,67.0,58.6,68.7,58.4,50.6,76,74,71,30.01,29.89,9,1,17,0.01
2013-2-21,81.1,69.0,57.9,70.8,60.0,49.7,75,73,71,30.00,29.87,10,2,18,0.00
2013-2-22,83.8,72.2,61.1,73.2,63.2,53.1,76,73,71,29.96,29.87,13,3,23,0.00
2013-2-23,81.7,74.0,68.1,71.8,65.2,59.9,76,74,72,29.90,29.78,18,5,33,0.00
2013-2-24,81.9,73.8,68.3,71.8,65.1,60.4,76,74,71,29.86,29.78,14,4,23,0.02
2013-2-25,83.8,73.9,67.0,73.2,65.0,58.8,76,74,71,29.79,29.67,11,2,27,0.00
2013-2-26,78.7,72.7,66.2,69.3,63.9,57.5,75,74,72,29.78,29.60,16,5,33,0.41
2013-2-27,72.6,66.0,58.0,63.0,57.1,49.8,74,73,71,29.87,29.76,7,2,16,0.00
2013-2-28,71.4,63.3,55.5,61.5,54.2,47.3,74,72,70,29.89,29.81,10,3,20,0.00
2013-3-1,60.9,57.9,54.1,51.4,48.8,44.9,73,72,70,29.92,29.81,10,4,21,0.00
2013-3-2,59.3,54.7,46.8,49.5,45.5,38.6,73,71,70,29.97,29.88,14,5,29,0.00
2013-3-3,55.2,49.7,41.9,45.9,40.8,33.4,72,71,70,30.05,29.87,14,6,26,0.00
2013-3-4,66.3,52.5,39.6,55.3,43.5,31.8,74,71,68,30.12,30.01,9,2,16,0.00
2013-3-5,72.1,58.9,42.5,62.2,50.2,34.8,75,73,70,30.06,29.94,13,4,23,0.00
2013-3-6,67.0,59.8,52.7,58.4,50.7,43.9,74,72,69,30.03,29.86,16,8,32,0.09
2013-3-7,63.9,52.9,44.2,53.3,43.8,35.7,73,71,69,30.12,30.02,9,3,20,0.00
2013-3-8,73.7,61.7,46.1,62.5,52.0,37.7,74,71,67,30.12,30.01,7,3,16,0.00
2013-3-9,76.6,71.2,51.4,65.1,60.6,41.7,74,69,68,30.10,30.00,8,5,15,0.00
2013-3-10,79.5,75.7,64.9,68.1,65.0,54.5,72,69,69,30.06,29.92,15,7,29,0.00
2013-3-11,78.2,76.0,65.5,67.6,65.6,56.1,73,70,69,29.99,29.80,16,9,29,0.00
2013-3-12,75.0,70.5,62.0,65.0,61.0,53.2,74,72,71,29.94,29.75,12,10,23,0.00
2013-3-13,73.5,64.0,56.0,62.3,54.3,47.1,73,71,67,30.08,29.93,11,5,21,0.00
2013-3-14,68.1,58.2,51.8,56.9,48.5,42.3,74,70,67,30.16,30.05,11,4,21,0.00
2013-3-15,72.3,56.4,43.2,61.1,47.2,35.5,75,71,67,30.18,30.04,8,2,15,0.00
2013-3-16,75.9,60.6,46.5,64.7,51.4,38.6,74,72,68,30.09,29.97,12,2,21,0.00
2013-3-17,75.4,63.9,51.1,65.3,54.9,43.3,75,73,70,30.02,29.90,11,2,21,0.00
2013-3-18,77.0,67.7,59.3,67.3,59.0,51.0,75,74,72,29.93,29.76,9,2,23,0.07
2013-3-19,84.0,71.0,64.1,73.6,62.0,55.8,75,73,70,29.90,29.78,10,1,19,0.01
2013-3-20,74.0,67.2,60.2,64.2,58.6,52.2,75,74,71,29.86,29.70,17,4,32,0.30
2013-3-21,69.6,60.6,51.5,58.3,51.1,42.8,75,71,66,29.88,29.77,8,3,18,0.00
2013-3-22,77.5,62.7,45.5,67.8,53.8,37.7,75,73,70,29.89,29.77,9,2,18,0.20
2013-3-23,82.1,73.0,65.5,72.2,64.4,57.4,76,75,72,29.86,29.69,15,5,28,0.01
2013-3-24,80.4,74.5,70.1,70.9,65.9,61.8,75,75,73,29.72,29.55,22,8,37,0.04
2013-3-25,71.1,64.2,53.8,62.8,54.8,45.0,75,72,68,29.95,29.64,13,6,25,0.00
2013-3-26,58.0,54.1,49.3,48.7,44.8,40.2,73,71,69,30.14,29.93,16,7,33,0.00
2013-3-27,59.6,50.4,42.5,49.2,41.3,34.1,73,71,69,30.21,30.11,10,3,20,0.00
2013-3-28,71.3,54.8,40.9,59.8,45.5,33.2,75,71,66,30.19,30.08,10,2,20,0.00
2013-3-29,76.3,60.4,46.4,64.6,50.8,38.6,74,71,67,30.21,30.07,10,2,23,0.00
2013-3-30,74.7,63.0,50.5,63.9,53.7,42.5,74,72,69,30.14,30.03,12,3,23,0.00
2013-3-31,80.2,67.7,56.4,69.5,58.3,48.1,74,72,69,30.07,29.91,13,3,23,0.00
2013-4-1,79.6,71.1,63.6,69.7,62.2,55.2,75,74,71,29.93,29.86,16,5,27,0.00
2013-4-2,82.1,71.4,64.1,71.2,62.3,56.0,76,73,70,29.98,29.89,7,2,15,0.06
2013-4-3,85.7,73.2,61.9,74.8,64.0,53.9,75,73,70,29.96,29.82,14,4,22,0.00
2013-4-4,73.3,69.9,66.2,64.5,61.5,57.8,75,75,74,29.97,29.75,13,2,25,2.77
2013-4-5,73.0,69.6,67.1,63.7,60.8,58.7,75,74,71,29.82,29.71,13,6,26,0.05
2013-4-8,85.3,77.6,67.8,74.0,67.5,58.8,74,71,69,30.00,29.92,9,1,15,0.00
2013-4-9,84.4,73.1,62.0,73.2,63.7,54.0,75,73,70,30.03,29.93,11,3,20,0.00
2013-4-10,86.7,74.3,63.9,76.2,65.0,55.4,75,73,70,29.99,29.84,11,3,25,0.01
2013-4-11,87.5,77.5,70.1,76.7,68.3,61.4,75,73,71,29.87,29.70,10,3,24,0.02
2013-4-12,81.5,76.9,73.3,71.8,68.0,64.9,75,74,73,29.81,29.70,16,5,30,0.00
2013-4-13,87.3,76.4,69.9,76.5,67.1,61.6,75,73,70,29.86,29.77,8,1,15,0.00
2013-4-14,86.5,77.1,69.6,76.0,67.7,60.6,75,73,71,29.90,29.73,17,6,29,0.00
2013-4-15,89.0,77.5,68.1,78.4,67.9,59.4,74,72,70,29.95,29.82,7,1,17,0.00
2013-4-16,90.9,79.4,69.4,79.6,69.8,61.1,75,73,70,30.01,29.90,10,3,19,0.00
2013-4-17,87.7,77.4,67.6,76.1,67.6,59.4,75,72,69,30.01,29.89,9,4,20,0.00
2013-4-18,86.1,77.2,66.8,75.4,67.8,58.6,75,73,70,29.93,29.82,11,3,18,0.03
2013-4-19,87.5,78.7,71.3,76.5,69.4,63.0,75,73,70,29.89,29.81,15,4,26,0.12
2013-4-20,76.8,72.6,66.2,67.4,63.7,57.5,75,74,72,30.01,29.85,7,3,15,0.22
2013-4-21,84.6,72.2,62.0,74.2,63.1,53.6,75,73,71,30.01,29.88,8,4,15,0.04
2013-4-22,81.3,72.7,68.4,71.2,64.0,60.2,75,74,72,29.97,29.85,8,2,13,0.89
2013-4-23,84.4,74.3,67.4,73.5,64.8,58.8,75,72,70,29.98,29.88,9,5,15,0.00
2013-4-24,85.9,72.8,61.5,74.6,63.4,53.5,75,73,69,30.02,29.94,9,2,18,0.00
2013-4-25,86.9,74.4,64.2,75.7,65.0,56.0,75,73,70,30.09,29.97,9,2,17,0.00
2013-4-26,87.3,76.3,64.4,76.3,66.6,55.9,74,72,69,30.12,30.02,8,2,16,0.00
2013-4-27,85.1,76.5,67.6,74.2,66.8,59.3,75,72,70,30.10,29.95,9,4,19,0.00
2013-4-28,86.3,75.7,64.4,75.2,66.1,56.0,75,72,69,30.00,29.84,11,3,20,0.00
2013-4-29,84.8,76.1,66.5,74.3,66.6,58.0,74,72,70,29.90,29.78,14,3,23,0.00
2013-4-30,87.3,76.0,68.4,76.4,66.7,60.2,75,73,70,29.88,29.78,11,2,19,0.00
2013-5-1,75.4,70.3,67.1,66.9,62.0,58.9,75,75,74,29.88,29.80,9,2,22,1.66
2013-5-2,78.2,71.9,67.0,68.8,63.3,58.8,75,74,73,29.85,29.69,7,2,13,0.56
2013-5-3,82.1,74.2,67.0,72.0,65.2,58.6,75,74,71,29.72,29.60,12,2,19,0.01
2013-5-4,78.2,72.6,67.9,68.8,63.8,59.7,75,74,72,29.70,29.57,15,4,28,0.00
2013-5-5,75.9,69.5,64.9,65.1,60.1,55.9,75,72,69,29.84,29.68,11,6,23,0.01
2013-5-6,75.4,69.0,63.0,65.1,59.8,54.2,74,72,71,29.90,29.79,10,3,21,0.00
2013-5-7,75.6,68.3,59.7,65.5,59.2,51.6,75,73,71,29.94,29.86,11,3,23,0.00
2013-5-8,78.0,70.4,61.9,67.8,61.2,53.9,75,73,70,30.02,29.92,10,2,21,0.00
2013-5-9,85.7,72.8,61.1,74.4,63.5,53.1,75,73,69,30.04,29.95,9,1,17,0.00
2013-5-10,88.8,76.5,65.3,77.7,67.2,56.8,76,73,70,30.02,29.89,12,3,22,0.00
2013-5-11,86.9,78.1,70.8,76.4,69.0,62.5,75,74,71,29.94,29.87,14,4,24,0.00
2013-5-12,85.1,78.1,71.8,74.6,68.9,63.4,76,73,71,29.93,29.83,13,4,23,0.00
2013-5-13,83.6,74.6,65.3,72.8,65.0,56.0,75,72,69,30.01,29.89,8,2,17,0.00
2013-5-14,84.2,71.6,58.2,72.3,61.4,49.6,73,71,67,30.09,29.98,8,2,18,0.00
2013-5-15,86.7,73.6,61.1,75.3,63.7,52.7,74,71,68,30.09,29.95,9,2,17,0.00
2013-5-16,87.7,74.4,62.5,76.1,64.7,54.5,75,72,68,30.01,29.89,7,1,18,0.00
2013-5-17,86.9,76.4,65.0,75.9,66.8,56.5,74,72,69,29.98,29.91,8,1,17,0.00
2013-5-18,88.6,78.1,68.3,77.4,68.5,60.1,75,72,70,29.99,29.90,8,2,18,0.00
2013-5-19,89.0,79.0,69.3,77.7,69.3,60.8,75,72,70,29.98,29.87,7,1,18,0.00
2013-5-20,91.3,77.1,69.6,79.9,67.8,60.8,75,73,70,29.96,29.83,16,1,33,0.66
2013-5-21,88.4,75.5,68.1,77.4,66.5,59.9,76,74,70,29.92,29.80,13,2,22,0.62
2013-5-22,86.3,77.2,68.3,75.8,68.0,60.1,75,73,71,29.85,29.77,9,1,20,0.01
2013-5-23,87.3,78.4,69.9,76.7,69.1,61.6,75,73,70,29.90,29.80,8,2,19,0.00
2013-5-24,89.8,80.9,71.8,78.9,71.3,63.4,75,73,70,29.95,29.86,9,2,20,0.00
2013-5-25,90.3,80.3,70.8,78.5,70.2,62.1,75,72,69,30.04,29.92,10,4,19,0.00
2013-5-26,86.7,76.5,64.5,74.7,66.4,56.4,75,71,68,30.08,29.98,8,3,15,0.00
2013-5-27,89.4,77.7,65.5,77.7,67.8,57.0,74,72,69,30.05,29.92,9,4,16,0.00
2013-5-28,89.8,77.6,70.1,78.8,68.3,61.8,75,73,70,30.01,29.89,14,6,25,0.01
2013-5-29,87.1,77.6,71.9,76.5,68.4,63.5,75,73,71,29.97,29.89,15,6,28,0.05
2013-5-30,87.3,78.9,73.1,76.5,69.6,64.3,75,73,71,29.95,29.87,18,8,33,0.00
2013-5-31,86.3,77.6,73.0,75.8,68.4,64.2,75,74,72,29.96,29.88,15,6,27,0.12
2013-6-1,87.3,77.6,73.7,77.2,68.8,65.1,75,74,72,29.92,29.83,12,2,21,1.23
2013-6-2,87.1,79.0,73.7,77.0,70.1,65.7,76,74,72,29.87,29.78,11,1,19,0.93
2013-6-3,83.0,76.5,74.2,73.3,68.0,66.1,76,75,73,29.84,29.78,8,1,21,0.21
2013-6-7,85.3,81.1,77.0,75.1,71.8,68.1,74,73,72,29.84,29.78,11,4,18,0.00
2013-6-8,86.9,77.7,71.8,77.0,68.8,63.5,76,74,72,29.98,29.84,15,3,28,5.02
2013-6-9,90.3,79.2,72.3,79.8,70.3,64.3,76,74,71,29.98,29.89,11,2,24,0.66
2013-6-10,91.3,80.6,75.0,80.8,71.4,65.9,76,74,71,29.97,29.89,14,2,27,0.05
2013-6-11,90.5,81.1,75.7,79.6,71.9,67.2,75,74,71,29.96,29.89,9,1,15,0.01
2013-6-12,91.7,81.0,73.5,81.0,71.6,65.1,75,73,71,29.96,29.88,8,1,25,0.41
2013-6-13,89.0,81.4,74.7,78.8,72.1,66.2,75,74,71,29.92,29.80,9,2,18,0.00
2013-6-14,87.1,81.6,77.1,76.5,72.2,68.2,75,73,71,29.84,29.75,11,2,20,0.00
2013-6-15,89.4,81.3,75.2,79.0,72.0,66.3,75,73,72,29.92,29.81,9,1,19,0.02
2013-6-16,88.8,79.6,76.4,78.4,70.8,67.9,75,75,72,29.95,29.90,7,2,13,0.00
2013-6-19,89.0,83.0,76.4,78.8,73.4,67.1,74,73,72,29.92,29.85,13,1,22,0.50
2013-6-20,90.9,81.5,74.9,80.2,72.1,66.1,75,73,71,29.97,29.89,9,1,20,0.49
2013-6-21,89.6,78.3,73.1,78.9,69.2,64.7,75,74,71,29.99,29.92,14,1,27,0.37
2013-6-22,92.6,80.1,72.8,81.2,70.7,64.4,75,73,69,29.99,29.92,9,1,19,0.43
2013-6-23,88.4,78.3,74.5,78.2,69.4,66.1,75,74,71,30.00,29.93,5,1,12,0.00
2013-6-25,80.9,77.0,76.1,71.4,68.1,67.2,74,74,73,29.97,29.93,5,1,19,0.00
2013-6-26,90.7,79.2,73.5,80.0,70.0,64.7,75,74,71,29.95,29.89,10,1,25,0.00
2013-6-27,91.5,79.6,71.8,80.8,70.3,63.4,75,73,71,29.93,29.83,12,1,22,0.70
2013-6-28,88.2,82.0,75.0,78.0,72.7,66.5,75,74,71,29.87,29.74,12,3,23,0.01
2013-6-29,87.3,80.6,76.3,77.2,71.5,67.2,75,74,72,29.77,29.69,18,2,35,0.94
2013-6-30,87.3,79.0,76.6,77.2,70.3,68.1,76,75,72,29.74,29.70,12,1,24,0.06
2013-7-1,75.4,74.5,74.0,66.9,66.1,65.6,76,75,75,29.87,29.84,8,2,14,0.40
2013-7-2,89.0,77.9,74.0,78.2,69.1,65.6,76,74,71,29.97,29.85,12,2,25,0.31
2013-7-3,89.4,77.3,74.2,79.0,68.6,65.8,76,75,72,30.00,29.91,11,3,29,0.95
2013-7-4,89.6,78.3,73.5,79.4,69.3,65.1,76,74,71,30.02,29.93,12,2,25,0.18
2013-7-5,89.0,78.4,73.8,78.6,69.5,65.2,75,74,71,30.02,29.93,15,3,35,0.67
2013-7-6,91.3,81.7,74.2,80.4,72.3,65.8,76,73,70,29.99,29.89,11,3,20,0.00
2013-7-7,90.9,82.3,75.6,80.2,72.8,67.1,75,73,70,29.99,29.89,14,3,28,0.01
2013-7-14,86.3,78.7,73.7,76.0,69.8,65.3,75,74,72,29.95,29.87,9,2,16,0.06
2013-7-29,94.6,85.6,77.7,83.3,75.5,68.7,74,72,70,30.02,29.92,10,1,22,0.00
2013-7-30,94.2,82.1,75.2,82.9,72.6,66.7,75,73,70,30.05,29.94,7,1,20,0.00
2013-7-31,92.6,82.0,76.6,81.4,72.7,68.1,75,74,70,30.01,29.87,14,1,26,0.23
2013-8-1,92.0,81.5,75.6,81.0,72.1,67.0,75,73,70,29.93,29.82,8,1,18,0.02
2013-8-2,90.5,81.5,74.9,80.0,72.1,66.4,75,73,71,29.93,29.83,11,1,19,0.01
2013-8-3,89.8,82.8,77.1,79.6,73.4,68.6,75,74,71,29.98,29.89,11,2,19,0.00
2013-8-4,86.9,82.4,78.0,77.0,73.3,69.2,75,74,73,29.98,29.89,6,1,24,0.41
2013-8-5,91.3,85.1,80.4,80.8,75.5,71.3,74,73,71,29.92,29.82,9,2,18,0.00
2013-8-6,90.3,82.6,74.3,80.0,73.4,65.5,75,74,72,29.87,29.77,11,1,33,1.38
2013-8-7,92.2,81.4,74.5,81.4,72.3,65.5,75,74,71,29.84,29.77,15,2,25,1.46
2013-8-8,93.5,82.3,76.4,82.5,72.9,67.9,75,73,70,29.90,29.80,9,2,21,0.01
2013-8-9,92.0,79.8,74.5,81.2,70.7,66.1,75,74,70,29.93,29.84,11,1,27,0.26
2013-8-10,93.3,82.8,74.0,82.7,73.3,65.4,75,73,70,29.99,29.90,7,1,16,0.00
2013-8-11,94.2,84.5,75.6,82.9,74.8,67.1,75,73,70,30.02,29.92,8,2,15,0.00
2013-8-12,94.4,89.0,80.6,83.1,78.3,71.1,73,71,70,29.94,29.87,6,2,12,0.00
2013-8-13,94.6,84.2,75.2,83.3,74.5,66.7,75,73,70,29.94,29.81,7,1,18,0.00
2013-8-14,89.6,83.6,78.4,79.4,74.1,69.8,75,73,71,29.89,29.80,9,2,16,0.00
2013-8-15,88.6,80.6,75.9,78.2,71.4,67.0,75,74,72,29.93,29.83,11,1,22,0.45
2013-8-16,92.6,83.9,77.8,81.8,74.4,68.8,75,73,71,29.92,29.83,10,0,24,0.46
2013-8-17,93.3,79.9,74.7,82.3,70.9,66.2,75,74,71,29.94,29.85,19,1,33,0.35
2013-8-18,91.3,80.7,74.7,80.6,71.7,66.2,75,74,71,29.98,29.86,15,2,34,1.34
2013-8-24,92.8,83.8,75.0,81.8,74.3,66.5,75,73,71,29.99,29.87,13,2,22,1.77
2013-8-25,88.6,79.3,74.5,78.4,70.4,66.1,76,74,72,30.02,29.93,11,2,23,0.01
2013-8-27,82.2,79.4,76.4,72.7,70.3,67.5,74,74,72,29.91,29.86,8,1,14,0.00
2013-8-28,91.1,79.2,73.5,79.8,70.0,65.1,75,74,70,29.93,29.86,11,1,26,0.00
2013-8-29,91.3,81.3,74.0,80.6,71.9,65.6,75,73,70,29.92,29.81,8,1,15,0.00
2013-8-30,88.8,81.5,77.0,78.6,72.2,68.5,75,74,71,29.87,29.77,8,1,15,0.02
2013-8-31,88.8,81.7,75.9,78.6,72.4,67.4,75,73,71,29.86,29.77,9,1,17,0.00
2013-9-1,91.1,81.0,74.7,80.2,71.7,66.2,75,74,71,29.87,29.80,12,1,21,0.19
2013-9-3,91.3,83.7,74.7,80.6,74.1,65.7,75,73,71,29.92,29.81,7,0,20,0.37
2013-9-4,92.8,80.5,74.9,81.8,71.4,66.1,75,74,71,29.95,29.84,7,1,25,0.06
2013-9-5,94.6,81.4,75.0,83.1,72.0,66.5,75,73,70,29.97,29.86,11,1,20,0.00
2013-9-6,94.4,81.6,74.3,83.5,72.4,65.9,75,74,70,29.93,29.80,16,1,28,0.29
2013-9-7,92.4,79.8,72.8,81.2,70.6,64.4,75,74,70,29.90,29.78,9,2,26,0.01
2013-9-8,90.9,81.3,73.3,80.2,71.9,64.9,75,73,70,29.84,29.73,7,1,15,0.02
2013-9-11,89.6,84.1,74.9,78.9,74.0,65.9,74,72,70,29.93,29.85,14,5,27,0.01
2013-9-12,87.1,78.2,73.3,76.6,69.2,64.7,75,74,72,29.90,29.76,7,1,15,0.67
2013-9-13,89.6,79.2,71.8,79.2,70.1,63.5,76,74,71,29.79,29.69,13,0,28,0.37
2013-9-14,93.1,82.3,74.5,81.6,72.9,65.7,75,73,70,29.84,29.72,11,1,27,0.01
2013-9-15,92.8,78.6,71.1,82.0,69.6,62.6,75,74,71,29.96,29.83,20,3,43,2.08
2013-9-16,90.7,78.2,73.7,80.4,69.4,65.3,75,74,71,29.93,29.86,15,2,26,0.02
2013-9-17,90.7,78.4,73.7,79.6,69.5,65.3,76,74,71,29.92,29.82,12,2,24,0.17
2013-9-18,89.8,79.4,74.7,79.1,70.3,66.2,75,74,71,29.90,29.82,13,2,26,0.51
2013-9-19,89.2,79.6,74.0,78.8,70.4,65.6,75,74,71,29.92,29.83,11,2,21,0.00
2013-9-20,88.8,80.5,73.7,78.2,70.9,65.1,75,73,70,29.90,29.77,7,2,15,0.00
2013-9-21,87.7,79.0,70.6,77.0,69.7,62.3,75,73,71,29.81,29.66,10,2,17,0.00
2013-9-22,87.7,81.3,74.9,77.5,72.0,66.4,75,73,71,29.73,29.64,14,3,27,0.00
2013-9-23,80.9,77.8,75.9,71.8,69.2,67.8,76,75,74,29.83,29.71,8,1,15,3.10
2013-9-24,77.8,76.2,74.0,69.2,68.0,66.0,76,76,75,29.84,29.74,10,2,18,1.87
2013-9-25,80.2,75.9,71.8,71.6,67.3,63.4,76,75,74,29.83,29.67,14,3,32,1.90
2013-9-26,88.4,82.3,76.4,78.3,73.1,67.5,75,74,71,29.74,29.67,12,4,24,0.00
2013-9-27,85.7,77.7,70.9,75.2,68.5,62.6,75,74,71,29.83,29.73,10,2,17,0.00
2013-9-28,89.0,78.5,71.9,78.2,69.3,63.5,75,73,70,29.87,29.78,11,3,22,0.01
2013-9-29,89.0,79.1,71.3,77.9,69.6,63.0,75,73,69,29.87,29.76,6,1,15,0.00
2013-9-30,89.8,79.6,70.8,78.5,70.1,62.5,75,73,70,29.87,29.78,6,1,13,0.00
2013-10-1,90.9,80.7,72.5,79.6,71.2,64.1,75,73,70,29.92,29.83,8,3,16,0.00
2013-10-2,89.0,79.9,72.5,78.4,70.5,64.1,75,73,71,29.92,29.83,10,3,18,0.00
2013-10-3,90.0,79.9,73.1,79.3,70.5,64.3,75,73,70,29.93,29.84,8,2,16,0.00
2013-10-4,89.6,80.8,74.5,78.5,71.3,66.1,75,73,70,29.95,29.86,6,1,14,0.00
2013-10-5,90.5,80.5,73.0,79.4,71.0,64.6,75,73,70,29.93,29.80,6,1,16,0.00
2013-10-6,89.4,79.6,72.5,78.6,70.3,64.1,75,73,70,29.86,29.74,9,1,16,0.00
2013-10-7,85.3,78.9,74.0,75.7,69.9,65.4,75,74,73,29.75,29.64,17,5,33,0.49
2013-10-8,84.6,80.6,75.6,74.6,71.2,66.5,74,73,72,29.82,29.69,10,4,21,0.00
2013-10-9,79.5,74.9,69.4,70.1,65.9,60.8,75,74,73,29.91,29.81,8,1,14,0.00
2013-10-10,85.7,74.9,66.0,75.0,65.8,57.8,75,73,71,29.93,29.84,4,1,11,0.00
2013-10-11,73.1,69.9,67.9,64.2,61.5,59.7,75,75,74,29.88,29.84,0,0,0,0.00
2013-10-13,73.0,71.7,70.8,63.4,62.5,61.7,73,73,72,29.93,29.93,0,0,1,0.00
2013-10-14,85.3,75.7,66.5,74.4,66.2,58.3,75,73,70,29.93,29.80,5,1,12,0.00
2013-10-15,83.8,74.8,68.4,73.4,65.7,60.2,75,73,71,29.88,29.77,4,1,12,0.00
2013-10-16,84.4,78.5,73.8,74.2,68.9,64.3,74,73,71,29.85,29.78,6,1,13,0.00
2013-10-18,88.6,83.5,0.0,85.4,82.1,48.1,95,90,75,29.86,29.77,6,2,14,0.00
2013-10-19,88.8,85.0,78.6,85.8,82.5,76.1,94,92,91,29.83,29.75,9,3,18,0.00
2013-10-20,88.4,80.8,0.0,85.6,82.0,72.7,96,89,91,29.84,29.75,5,3,12,0.00
2013-10-21,87.3,49.4,0.0,84.3,82.8,76.2,95,53,91,29.89,29.80,6,2,15,0.00
2013-10-22,86.3,84.6,77.0,83.7,82.1,74.2,95,92,91,29.83,29.70,11,5,22,0.00
2013-10-23,84.0,80.5,74.2,81.8,77.9,71.8,93,92,89,29.87,29.69,9,6,18,0.01
2013-10-27,0.0,0.0,0.0,75.0,75.0,75.0,0,0,100,29.99,29.98,0,0,0,0.00
2013-10-28,84.0,51.3,0.0,80.7,76.3,59.1,94,57,89,30.06,29.96,5,1,11,0.00
2013-10-29,84.8,82.0,65.3,81.3,78.8,61.9,95,90,89,30.10,29.99,9,3,25,0.00
2013-10-30,85.0,82.3,67.4,81.7,79.3,64.3,95,91,90,30.10,29.95,9,4,19,0.00
2013-11-1,80.4,76.9,75.2,78.2,75.1,73.7,95,94,93,29.79,29.77,1,0,5,0.00
2013-11-2,77.8,72.3,66.3,76.3,70.7,64.5,96,95,92,29.86,29.71,12,1,26,0.25
2013-11-3,77.0,67.8,61.1,73.0,65.2,58.6,95,91,88,29.99,29.85,9,3,17,0.00
2013-11-4,80.6,69.3,59.1,77.4,66.9,57.4,94,92,90,30.02,29.95,15,6,26,0.00
2013-11-5,83.8,74.4,66.2,80.7,72.3,64.7,95,93,91,30.01,29.92,13,7,24,0.02
2013-11-6,85.0,76.0,69.6,82.1,73.9,67.9,95,93,90,29.98,29.87,7,3,15,0.00
2013-11-10,83.6,77.8,70.1,80.5,75.3,68.3,94,92,91,30.03,29.93,8,2,16,0.01
2013-11-11,83.0,73.7,67.1,80.1,71.7,65.6,95,93,91,30.03,29.93,6,2,15,0.00
2013-11-12,79.5,71.8,65.8,77.0,70.0,64.3,95,94,92,29.99,29.88,5,1,15,0.00
2013-11-13,70.3,63.4,56.0,67.9,61.0,54.0,93,92,91,30.17,29.95,13,7,24,0.00
2013-11-16,77.8,74.4,70.9,75.6,72.4,68.8,95,93,92,29.99,29.90,11,5,20,0.01
2013-11-17,86.5,76.2,69.4,83.4,74.0,67.6,95,93,91,29.95,29.86,6,1,16,0.00
2013-11-18,81.5,73.3,68.8,78.9,71.6,67.3,95,94,92,29.90,29.81,3,0,10,0.00
2013-11-19,82.4,75.2,69.4,79.8,73.3,67.6,95,94,92,29.84,29.75,6,1,10,0.02
2013-11-20,84.0,73.2,65.5,81.4,71.3,63.7,95,94,92,29.96,29.83,8,3,14,0.10
2013-11-24,60.6,60.5,60.5,58.6,58.5,58.5,93,93,93,30.07,0.00,7,6,12,0.10
2013-11-25,77.0,69.0,60.6,74.2,66.7,58.6,94,92,91,30.09,29.93,16,8,29,0.00
2013-11-26,82.4,74.7,68.1,79.6,72.8,66.3,95,94,92,29.93,29.66,11,5,32,0.36
2013-11-27,74.2,66.4,52.3,72.7,64.4,50.1,95,93,91,30.06,29.63,17,8,39,0.08
2013-11-28,65.8,60.0,53.3,63.1,57.7,51.6,94,92,90,30.21,30.10,5,2,12,0.00
2013-11-29,72.5,61.4,52.0,69.7,59.3,50.3,95,93,91,30.21,30.12,11,5,17,0.00
2013-11-30,75.9,64.6,54.6,73.4,62.7,52.9,95,94,92,30.18,30.04,11,4,19,0.00
2013-12-1,75.7,65.5,60.6,73.5,63.9,59.2,96,95,92,30.06,29.87,7,2,15,0.00
2013-12-2,69.6,64.8,60.5,67.3,63.2,59.1,96,94,92,29.87,29.74,4,1,10,0.02
2013-12-3,76.8,69.2,61.2,74.3,67.2,59.8,95,94,92,29.86,29.77,7,1,16,0.00
2013-12-4,82.8,72.3,63.9,79.9,70.4,62.4,95,94,91,29.95,29.84,9,2,19,0.01
2013-12-5,82.2,76.0,67.6,79.3,73.7,66.1,95,93,91,30.05,29.95,7,2,16,0.01
2013-12-6,84.4,73.9,65.3,81.5,72.0,63.8,96,94,91,30.05,29.95,7,1,19,0.01
2013-12-7,85.3,73.2,64.9,81.8,71.2,63.5,96,94,90,30.11,30.00,5,0,13,0.00
2013-12-8,84.4,73.3,64.7,81.1,71.3,63.0,96,94,90,30.09,29.96,10,2,19,0.01
2013-12-9,83.8,72.9,65.3,80.7,71.1,63.8,96,94,90,30.06,29.96,6,1,17,0.00
2013-12-10,82.2,72.3,62.6,79.3,70.5,61.1,96,94,91,30.04,29.97,9,1,19,0.01
2013-12-11,84.4,72.1,64.2,81.5,70.1,62.6,95,94,91,30.12,30.02,8,2,18,0.01
2013-12-13,76.4,70.3,62.5,73.2,67.8,60.1,94,92,90,30.13,29.98,10,5,19,0.00
2013-12-14,82.2,72.7,62.3,79.6,70.7,60.6,95,94,92,29.98,29.84,8,3,26,0.00
2013-12-15,75.9,70.8,61.2,74.2,69.0,59.7,95,94,92,30.01,29.79,12,4,27,0.27
2013-12-16,65.5,58.3,50.5,62.8,56.2,48.6,95,93,90,30.10,29.98,6,2,12,0.00
2013-12-17,73.7,57.4,45.9,70.6,55.3,44.3,94,93,90,30.13,30.02,5,1,10,0.00
2013-12-18,72.8,59.4,48.3,69.0,56.9,46.4,94,91,88,30.16,30.08,7,1,16,0.00
2013-12-19,77.3,68.5,60.9,74.1,65.9,59.2,94,91,89,30.09,30.03,7,2,20,0.00
2013-12-20,83.0,70.6,59.0,80.1,68.5,57.3,94,93,91,30.06,29.95,11,3,24,0.00
2013-12-21,85.0,75.1,68.6,82.1,73.0,67.1,95,93,91,30.00,29.89,8,2,22,0.00
2013-12-22,84.2,75.2,69.8,81.4,73.3,68.3,95,94,92,30.01,29.93,6,2,23,0.01
2013-12-23,82.6,74.8,68.9,80.0,73.0,67.4,96,94,92,30.04,29.97,10,2,23,0.00
2013-12-24,74.5,65.5,51.1,73.0,63.2,48.9,95,92,89,30.13,29.99,10,4,21,0.01
2013-12-25,60.3,51.1,48.6,58.0,49.0,46.7,93,92,92,30.12,30.06,6,1,11,0.00
2013-12-26,78.9,72.2,60.9,76.0,69.7,59.2,94,92,91,30.08,29.95,9,3,15,0.00
2013-12-27,77.1,68.2,62.2,74.6,66.3,60.5,95,94,92,30.12,30.00,9,6,15,0.00
2013-12-28,80.6,72.6,65.2,78.1,70.7,63.7,95,94,92,30.09,29.87,15,6,24,0.00
2013-12-29,76.6,71.8,65.0,74.9,70.2,63.5,95,95,94,29.89,29.77,13,3,33,0.28
2013-12-30,66.0,64.2,62.3,64.2,62.5,60.8,95,94,94,30.07,29.89,3,1,10,0.00
2013-12-31,63.0,61.1,59.6,61.0,59.4,57.6,95,94,92,30.17,30.03,8,1,13,0.00